When you browse on this site, cookies collect data to enhance your experience and personalize the content and advertising you see.
Visit our Privacy Policy to learn more. By continuing to use the site, you agree to this use of cookies and data.

Hourly Weather Gonzha

Today, 9 July, Thursday

Time Temperature Precipitation Wind Pressure Humidity
00:00 +16°C° 0 mm 1 mps 715 mmHg 67%
01:00 +15°C° 0 mm 2 mps 715 mmHg 70%
02:00 +15°C° 0 mm 2 mps 715 mmHg 72%
03:00 +15°C° 0 mm 2 mps 715 mmHg 69%
04:00 +16°C° 0 mm 3 mps 715 mmHg 67%
05:00 +16°C° 0 mm 3 mps 715 mmHg 64%
06:00 +18°C° 0 mm 3 mps 715 mmHg 60%
07:00 +19°C° 0 mm 4 mps 715 mmHg 56%
08:00 +22°C° 0 mm 4 mps 716 mmHg 48%
09:00 +25°C° 0 mm 4 mps 716 mmHg 44%
10:00 +27°C° 0 mm 4 mps 715 mmHg 40%
11:00 +29°C° 0 mm 4 mps 715 mmHg 36%
12:00 +30°C° 0 mm 5 mps 715 mmHg 34%
13:00 +32°C° 0 mm 5 mps 715 mmHg 32%
14:00 +33°C° 0 mm 5 mps 715 mmHg 30%
15:00 +33°C° 0 mm 5 mps 715 mmHg 32%
16:00 +32°C° 0 mm 5 mps 715 mmHg 33%
17:00 +32°C° 0 mm 5 mps 715 mmHg 35%
18:00 +28°C° 0 mm 4 mps 715 mmHg 45%
19:00 +25°C° 0 mm 3 mps 715 mmHg 55%
20:00 +23°C° 0 mm 2 mps 715 mmHg 65%
21:00 +20°C° 0.1 mm 2 mps 715 mmHg 73%
22:00 +20°C° 0.1 mm 1 mps 715 mmHg 81%
23:00 +18°C° 0.1 mm 1 mps 715 mmHg 90%

Tomorrow, 10 July, Friday

Time Temperature Precipitation Wind Pressure Humidity
00:00 +18°C° 0.1 mm 1 mps 716 mmHg 92%
01:00 +17°C° 0.1 mm 2 mps 716 mmHg 94%
02:00 +17°C° 0.1 mm 2 mps 716 mmHg 96%
03:00 +17°C° 0.1 mm 2 mps 716 mmHg 95%
04:00 +17°C° 0.1 mm 2 mps 716 mmHg 95%
05:00 +17°C° 0.1 mm 2 mps 717 mmHg 94%
06:00 +18°C° 0.1 mm 2 mps 717 mmHg 93%
07:00 +19°C° 0.1 mm 2 mps 717 mmHg 91%
08:00 +20°C° 0.1 mm 2 mps 717 mmHg 89%
09:00 +24°C° 0 mm 2 mps 718 mmHg 77%
10:00 +27°C° 0 mm 2 mps 718 mmHg 65%
11:00 +30°C° 0 mm 2 mps 718 mmHg 53%
12:00 +31°C° 0 mm 2 mps 718 mmHg 47%
13:00 +34°C° 0 mm 2 mps 718 mmHg 41%
14:00 +35°C° 0 mm 2 mps 718 mmHg 35%
15:00 +35°C° 0 mm 2 mps 718 mmHg 35%
16:00 +35°C° 0 mm 2 mps 717 mmHg 35%
17:00 +35°C° 0 mm 2 mps 717 mmHg 35%
18:00 +32°C° 0 mm 2 mps 718 mmHg 43%
19:00 +29°C° 0 mm 2 mps 718 mmHg 50%
20:00 +27°C° 0 mm 2 mps 718 mmHg 58%
21:00 +25°C° 0 mm 2 mps 718 mmHg 64%
22:00 +23°C° 0 mm 2 mps 718 mmHg 71%
23:00 +21°C° 0 mm 1 mps 718 mmHg 78%

Day after tomorrow, 11 July, Saturday

Time Temperature Precipitation Wind Pressure Humidity
00:00 +21°C° 0 mm 1 mps 718 mmHg 81%
01:00 +20°C° 0 mm 1 mps 718 mmHg 83%
02:00 +19°C° 0 mm 1 mps 719 mmHg 86%
03:00 +19°C° 0 mm 1 mps 719 mmHg 85%
04:00 +20°C° 0 mm 1 mps 719 mmHg 84%
05:00 +20°C° 0 mm 1 mps 719 mmHg 83%
06:00 +23°C° 0 mm 1 mps 720 mmHg 72%
07:00 +25°C° 0 mm 1 mps 720 mmHg 62%
08:00 +28°C° 0 mm 1 mps 721 mmHg 51%
09:00 +30°C° 0 mm 2 mps 721 mmHg 44%
10:00 +32°C° 0 mm 2 mps 721 mmHg 37%
11:00 +36°C° 0 mm 2 mps 721 mmHg 30%
12:00 +37°C° 0 mm 2 mps 721 mmHg 27%
13:00 +38°C° 0 mm 2 mps 721 mmHg 25%
14:00 +39°C° 0 mm 1 mps 721 mmHg 22%
15:00 +37°C° 0 mm 1 mps 720 mmHg 23%
16:00 +37°C° 0 mm 2 mps 720 mmHg 25%
17:00 +36°C° 0 mm 2 mps 720 mmHg 27%
18:00 +34°C° 0 mm 2 mps 720 mmHg 35%
19:00 +30°C° 0 mm 2 mps 720 mmHg 43%
20:00 +28°C° 0 mm 2 mps 720 mmHg 52%
21:00 +26°C° 0 mm 2 mps 721 mmHg 56%
22:00 +25°C° 0 mm 1 mps 721 mmHg 60%
23:00 +24°C° 0 mm 1 mps 721 mmHg 65%

12 July, Sunday

Time Temperature Precipitation Wind Pressure Humidity
00:00 +23°C° 0 mm 1 mps 721 mmHg 69%
01:00 +22°C° 0 mm 1 mps 721 mmHg 73%
02:00 +21°C° 0 mm 1 mps 721 mmHg 77%
03:00 +21°C° 0 mm 1 mps 721 mmHg 78%
04:00 +22°C° 0 mm 1 mps 721 mmHg 78%
05:00 +22°C° 0 mm 1 mps 722 mmHg 78%
06:00 +25°C° 0 mm 1 mps 722 mmHg 67%
07:00 +28°C° 0 mm 1 mps 722 mmHg 56%
08:00 +31°C° 0 mm 1 mps 722 mmHg 45%
09:00 +33°C° 0 mm 1 mps 722 mmHg 39%
10:00 +35°C° 0 mm 1 mps 722 mmHg 33%
11:00 +38°C° 0 mm 2 mps 722 mmHg 28%
12:00 +37°C° 0 mm 2 mps 722 mmHg 29%
13:00 +36°C° 0 mm 1 mps 721 mmHg 30%
14:00 +35°C° 0 mm 1 mps 721 mmHg 32%
15:00 +36°C° 0 mm 2 mps 721 mmHg 32%
16:00 +36°C° 0 mm 2 mps 721 mmHg 32%
17:00 +36°C° 0 mm 2 mps 721 mmHg 32%
18:00 +32°C° 0 mm 1 mps 721 mmHg 39%
19:00 +30°C° 0 mm 1 mps 721 mmHg 47%
20:00 +27°C° 0 mm 1 mps 721 mmHg 54%
21:00 +24°C° 0 mm 0 mps 720 mmHg 57%
22:00 +23°C° 0 mm 0 mps 720 mmHg 59%
23:00 +22°C° 0 mm 0 mps 720 mmHg 62%

13 July, Monday

Time Temperature Precipitation Wind Pressure Humidity
00:00 +22°C° 0 mm 0 mps 720 mmHg 64%
01:00 +21°C° 0 mm 0 mps 720 mmHg 66%
02:00 +21°C° 0 mm 0 mps 720 mmHg 67%
03:00 +21°C° 0 mm 0 mps 720 mmHg 68%
04:00 +22°C° 0 mm 0 mps 721 mmHg 68%
05:00 +22°C° 0 mm 0 mps 721 mmHg 69%
06:00 +25°C° 0 mm 0 mps 721 mmHg 59%
07:00 +29°C° 0 mm 0 mps 721 mmHg 50%
08:00 +32°C° 0 mm 0 mps 722 mmHg 40%
09:00 +34°C° 0 mm 0 mps 722 mmHg 36%
10:00 +36°C° 0 mm 0 mps 721 mmHg 31%
11:00 +38°C° 0 mm 0 mps 721 mmHg 26%
12:00 +36°C° 0 mm 0 mps 721 mmHg 30%
13:00 +34°C° 0 mm 0 mps 720 mmHg 33%
14:00 +32°C° 0 mm 0 mps 720 mmHg 36%
15:00 +32°C° 0 mm 0 mps 720 mmHg 36%
16:00 +34°C° 0 mm 1 mps 720 mmHg 36%
17:00 +34°C° 0 mm 1 mps 719 mmHg 36%
18:00 +30°C° 0 mm 0 mps 719 mmHg 41%
19:00 +28°C° 0 mm 0 mps 719 mmHg 46%
20:00 +26°C° 0 mm 0 mps 719 mmHg 51%
21:00 +25°C° 0 mm 0 mps 719 mmHg 53%
22:00 +24°C° 0 mm 0 mps 719 mmHg 55%
23:00 +23°C° 0 mm 0 mps 719 mmHg 57%

14 July, Tuesday

Time Temperature Precipitation Wind Pressure Humidity
00:00 +22°C° 0 mm 0 mps 718 mmHg 60%
01:00 +21°C° 0 mm 0 mps 718 mmHg 63%
02:00 +21°C° 0 mm 0 mps 718 mmHg 65%
03:00 +21°C° 0.1 mm 0 mps 718 mmHg 67%
04:00 +23°C° 0.1 mm 1 mps 718 mmHg 69%
05:00 +23°C° 0.1 mm 1 mps 718 mmHg 70%
06:00 +26°C° 0.1 mm 1 mps 718 mmHg 62%
07:00 +27°C° 0.1 mm 0 mps 718 mmHg 54%
08:00 +30°C° 0.1 mm 0 mps 718 mmHg 46%
09:00 +32°C° 0 mm 0 mps 718 mmHg 40%
10:00 +35°C° 0 mm 1 mps 718 mmHg 35%
11:00 +37°C° 0 mm 1 mps 718 mmHg 29%
12:00 +37°C° 0 mm 1 mps 717 mmHg 29%
13:00 +37°C° 0 mm 1 mps 717 mmHg 29%
14:00 +37°C° 0 mm 1 mps 716 mmHg 29%
15:00 +36°C° 0.1 mm 1 mps 716 mmHg 32%
16:00 +34°C° 0.1 mm 1 mps 716 mmHg 36%
17:00 +33°C° 0.1 mm 1 mps 715 mmHg 39%
18:00 +30°C° 0.4 mm 2 mps 715 mmHg 54%
19:00 +26°C° 0.4 mm 2 mps 715 mmHg 69%
20:00 +23°C° 0.4 mm 2 mps 715 mmHg 83%
21:00 +22°C° 0.3 mm 1 mps 714 mmHg 85%
22:00 +21°C° 0.3 mm 1 mps 714 mmHg 86%
23:00 +19°C° 0.3 mm 0 mps 714 mmHg 88%
Show more